Location: Hradec Kralove
(50.2167°N, 15.8333°E)
Time: 07:23:32
(UTC+02:00)

ISS - Visible Passes

Search period start: 25 September 2018 00:00
Search period end: 05 October 2018 00:00
Orbit: 403 x 408 km, 51.6° (Epoch: 25 September)

Date Brightness Start Highest point End Pass type
(mag) Time Alt. Az. Time Alt. Az. Time Alt. Az.
25 Sep -2.5 19:28:01 10° SSW 19:30:46 25° SE 19:33:23 11° E visible
25 Sep -2.9 21:03:41 10° WSW 21:06:04 44° WSW 21:06:04 44° WSW visible
26 Sep -3.8 20:11:53 10° WSW 20:15:09 64° SSE 20:16:23 34° E visible
26 Sep -0.8 21:48:24 10° W 21:49:04 15° W 21:49:04 15° W visible
27 Sep -3.3 19:20:10 10° SW 19:23:20 44° SSE 19:26:30 10° E visible
27 Sep -3.3 20:56:28 10° W 20:59:17 58° WNW 20:59:17 58° WNW visible
28 Sep -3.9 20:04:33 10° WSW 20:07:51 86° NNW 20:09:26 28° ENE visible
28 Sep -0.9 21:41:12 10° WNW 21:42:06 17° WNW 21:42:06 17° WNW visible
29 Sep -3.8 19:12:39 10° WSW 19:15:57 74° SSE 19:19:15 10° ENE visible
29 Sep -3.3 20:49:15 10° W 20:52:11 59° NW 20:52:11 59° NW visible
30 Sep -3.7 19:57:16 10° W 20:00:34 69° N 20:02:14 26° ENE visible
30 Sep -1.0 21:33:54 10° WNW 21:34:54 18° WNW 21:34:54 18° WNW visible
01 Oct -3.7 19:05:17 10° W 19:08:36 79° NNW 19:11:54 10° ENE visible
01 Oct -3.5 20:41:56 10° WNW 20:44:55 64° NW 20:44:55 64° NW visible
02 Oct -3.6 19:49:58 10° W 19:53:16 66° N 19:54:55 26° ENE visible
02 Oct -1.1 21:26:32 10° WNW 21:27:35 19° W 21:27:35 19° W visible
03 Oct -3.6 18:57:58 10° W 19:01:14 67° N 19:04:33 10° E visible
03 Oct -3.7 20:34:34 10° WNW 20:37:35 72° W 20:37:35 72° W visible
04 Oct -3.8 19:42:35 10° WNW 19:45:53 76° N 19:47:35 26° E visible
04 Oct -1.1 21:19:11 10° W 21:20:15 18° W 21:20:15 18° W visible
